EW2672 Weather Reports


time (UTC)temp
F
wind
direction
speed
knots
gust
knots
rain 1hr
in
rain 24hr
in
rain mn
in
humidity
%
barometer
mb
20260506211553 60 0.0 8.7 0.00 0.00 0.00 83 1013.1
20260506211051 60 2 1.7 8.7 0.00 0.00 0.00 83 1013.1
20260506210549 60 6 1.7 8.7 0.00 0.00 0.00 83 1013.2
20260506210047 60 351 1.7 10.4 0.00 0.00 0.00 83 1013.1
20260506205543 60 8 3.5 9.6 0.00 0.00 0.00 83 1013.1
20260506205041 60 348 2.6 9.6 0.00 0.00 0.00 82 1013.2
20260506204539 61 10 1.7 7.0 0.00 0.00 0.00 83 1013.2
20260506204035 60 0.9 7.0 0.00 0.00 0.00 83 1013.1
20260506203533 60 22 1.7 7.8 0.00 0.00 0.00 83 1013.2
20260506203031 61 7 1.7 7.8 0.00 0.00 0.00 82 1013.3
20260506202527 61 0.0 7.0 0.00 0.00 0.00 82 1013.3
20260506202025 61 21 0.9 6.1 0.00 0.00 0.00 83 1013.3
20260506201523 60 17 0.9 11.3 0.00 0.00 0.00 83 1013.0
20260506201021 60 4 1.7 11.3 0.00 0.00 0.00 83 1013.1
20260506200517 60 23 0.9 9.6 0.00 0.00 0.00 83 1013.1
20260506200015 61 1 1.7 8.7 0.00 0.00 0.00 82 1013.2
20260506195513 61 359 1.7 8.7 0.00 0.00 0.00 81 1013.2
20260506195011 62 16 0.9 9.6 0.00 0.00 0.00 82 1013.2
20260506194507 62 10 2.6 9.6 0.00 0.00 0.00 81 1013.2
20260506194005 62 3 0.9 9.6 0.00 0.00 0.00 81 1013.1
20260506193503 62 358 0.9 9.6 0.00 0.00 0.00 82 1013.0
20260506193002 62 315 1.7 10.4 0.00 0.00 0.00 81 1013.1
20260506192459 63 353 1.7 10.4 0.00 0.00 0.00 80 1013.2
20260506191957 63 23 1.7 7.8 0.00 0.00 0.00 80 1013.2
20260506191453 64 343 0.9 7.8 0.00 0.00 0.00 80 1013.2
20260506190951 64 0.9 3.5 0.00 0.00 0.00 81 1013.2
20260506190449 64 0.0 3.5 0.00 0.00 0.00 82 1013.1
20260506185947 64 0.0 11.3 0.00 0.00 0.00 81 1013.1
20260506185443 65 10 0.9 7.8 0.00 0.00 0.00 82 1013.0
20260506184941 65 353 0.9 7.8 0.00 0.00 0.00 81 1013.0
20260506184439 66 0.9 7.0 0.00 0.00 0.00 81 1012.9
20260506183937 66 14 0.9 9.6 0.00 0.00 0.00 81 1012.8
20260506183433 67 350 1.7 9.6 0.00 0.00 0.00 78 1012.9
20260506182931 68 4 0.9 11.3 0.00 0.00 0.00 77 1013.0
20260506182429 70 352 1.7 11.3 0.00 0.00 0.00 74 1012.9
20260506181927 71 0.9 4.3 0.00 0.00 0.00 74 1012.8
20260506181423 71 0.0 2.6 0.00 0.00 0.00 75 1012.8
20260506180921 71 0.0 5.2 0.00 0.00 0.00 76 1012.7
20260506180419 71 38 0.9 7.8 0.00 0.00 0.00 76 1012.7
20260506175917 70 359 0.9 7.8 0.00 0.00 0.00 76 1012.6
20260506175413 70 48 0.9 3.5 0.00 0.00 0.00 76 1012.6
20260506174911 70 0.0 3.5 0.00 0.00 0.00 76 1012.5
20260506174409 70 0.0 1.7 0.00 0.00 0.00 77 1012.4
20260506173907 69 0.0 0.0 0.00 0.00 0.00 78 1012.2
20260506173403 69 0.0 0.0 0.00 0.00 0.00 78 1012.3
20260506172901 69 0.0 0.0 0.00 0.00 0.00 79 1012.3
20260506172357 69 0.0 0.0 0.00 0.00 0.00 79 1012.2
20260506171855 68 0.0 0.0 0.00 0.00 0.00 78 1012.2
20260506171353 68 0.0 0.0 0.00 0.00 0.00 80 1012.2
20260506170851 67 0.0 0.0 0.00 0.00 0.00 79 1012.3
20260506170347 67 0.0 0.0 0.00 0.00 0.00 81 1012.1
20260506165845 66 0.0 0.0 0.00 0.00 0.00 81 1012.2
20260506165343 66 0.0 0.0 0.00 0.00 0.00 83 1012.2
20260506164841 65 0.0 0.0 0.00 0.00 0.00 83 1012.1
20260506164337 65 0.0 0.0 0.00 0.00 0.00 84 1012.2
20260506163835 64 0.0 0.0 0.00 0.00 0.00 85 1012.4
20260506163332 63 0.0 0.0 0.00 0.00 0.00 88 1012.8
20260506162830 62 0.0 0.9 0.00 0.00 0.00 90 1012.7
20260506162327 61 0.0 0.9 0.00 0.00 0.00 91 1013.0
20260506161825 60 0.0 0.9 0.00 0.00 0.00 91 1013.0
20260506161323 60 0.0 1.7 0.00 0.00 0.00 90 1012.5
20260506160820 60 0.0 1.7 0.00 0.00 0.00 90 1013.0
20260506160316 60 0.0 3.5 0.00 0.00 0.00 90 1013.5
20260506155814 60 0.0 3.5 0.00 0.00 0.00 90 1013.9
20260506155312 60 27 0.9 5.2 0.00 0.00 0.00 90 1013.6
20260506154810 60 0.0 11.3 0.00 0.00 0.00 90 1013.5
20260506154306 60 11 2.6 11.3 0.00 0.00 0.00 90 1013.9
20260506153804 61 30 0.9 8.7 0.00 0.00 0.00 90 1013.9
20260506153302 61 15 0.9 11.3 0.00 0.00 0.00 90 1014.0
20260506152800 61 360 0.9 11.3 0.00 0.00 0.00 90 1013.9
20260506152256 62 11 1.7 9.6 0.00 0.00 0.00 90 1013.4
20260506151754 62 13 0.9 10.4 0.00 0.00 0.00 90 1013.4
20260506151252 63 22 1.7 10.4 0.00 0.00 0.00 89 1013.3
20260506150751 63 360 0.9 7.8 0.00 0.00 0.00 90 1013.0
20260506150246 63 348 0.9 7.8 0.00 0.00 0.00 90 1012.7
20260506145744 63 0.0 4.3 0.00 0.00 0.00 90 1012.4
20260506145240 63 0.9 5.2 0.00 0.00 0.00 90 1012.2
20260506144738 64 26 0.9 9.6 0.00 0.00 0.00 89 1012.0
20260506144236 64 27 1.7 9.6 0.00 0.00 0.00 88 1011.9
20260506143734 65 15 1.7 9.6 0.00 0.00 0.00 89 1011.7
20260506143230 65 46 0.9 5.2 0.00 0.00 0.00 89 1011.9
20260506142728 66 17 0.9 5.2 0.00 0.00 0.00 88 1012.0
20260506142226 67 358 1.7 5.2 0.00 0.00 0.00 88 1011.5
20260506141724 67 11 0.9 4.3 0.00 0.00 0.00 87 1011.3
20260506141220 68 0.0 2.6 0.00 0.00 0.00 87 1011.2
20260506140718 69 0.0 2.6 0.00 0.00 0.00 87 1011.0
20260506140216 70 0.0 2.6 0.00 0.00 0.00 87 1010.9
20260506135714 71 26 0.9 5.2 0.00 0.00 0.00 86 1011.1
20260506135210 72 0.0 9.6 0.00 0.00 0.00 85 1011.1
20260506134708 74 17 1.7 9.6 0.00 0.00 0.00 93 1010.9
20260506134206 74 0.0 0.0 0.00 0.00 0.00 93 1010.6
20260506133704 74 0.0 0.0 0.00 0.00 0.00 93 1010.2
20260506133200 74 0.0 0.0 0.00 0.00 0.00 93 1010.3
20260506132658 74 0.0 0.0 0.00 0.00 0.00 93 1010.5
20260506132156 74 0.0 0.0 0.00 0.00 0.00 93 1010.5
20260506131654 74 0.0 0.0 0.00 0.00 0.00 94 1010.4
20260506131150 74 0.0 0.0 0.00 0.00 0.00 94 1010.4
20260506130648 74 0.0 0.0 0.00 0.00 0.00 94 1010.2
20260506130146 74 0.0 0.0 0.00 0.00 0.00 94 1009.9
20260506125644 73 0.0 0.0 0.00 0.00 0.00 94 1009.9
20260506125140 73 0.0 0.0 0.00 0.00 0.00 94 1009.9
20260506124638 73 0.0 0.0 0.00 0.00 0.00 94 1009.9
20260506124136 73 0.0 0.0 0.00 0.00 0.00 94 1009.7
20260506123634 73 0.0 0.0 0.00 0.00 0.00 94 1009.6
20260506123130 73 0.0 0.0 0.00 0.00 0.00 93 1009.7
20260506122628 72 0.0 0.0 0.00 0.00 0.00 93 1009.7
20260506122126 72 0.0 0.0 0.00 0.00 0.00 93 1009.5
20260506121624 72 0.0 0.0 0.00 0.00 0.00 93 1009.5
20260506121120 72 0.0 0.0 0.00 0.00 0.00 93 1009.5
20260506120618 72 0.0 0.0 0.00 0.00 0.00 92 1009.5
20260506120114 72 0.0 0.0 0.00 0.00 0.00 92 1009.5
20260506115612 72 0.0 0.0 0.00 0.00 0.00 92 1009.4
20260506115110 73 0.0 0.0 0.00 0.00 0.00 92 1009.4
20260506114608 73 0.0 0.0 0.00 0.00 0.00 92 1009.4
20260506114104 73 0.0 0.0 0.00 0.00 0.00 92 1009.4
20260506113602 73 0.0 0.0 0.00 0.00 0.00 92 1009.3
20260506113100 73 0.0 0.0 0.00 0.00 0.00 92 1009.4
20260506112558 73 0.0 0.0 0.00 0.00 0.00 92 1009.4
20260506112054 74 0.0 0.0 0.00 0.00 0.00 92 1009.5
20260506111552 74 0.0 0.0 0.00 0.00 0.00 92 1009.4
20260506111050 74 0.0 0.0 0.00 0.00 0.00 91 1009.5
20260506110548 74 0.0 0.0 0.00 0.00 0.00 91 1009.5
20260506110044 74 0.0 0.0 0.00 0.00 0.00 91 1009.5
20260506105542 74 0.0 0.0 0.00 0.00 0.00 91 1009.5
20260506105040 74 0.0 0.0 0.00 0.00 0.00 91 1009.5
20260506104538 74 0.0 0.0 0.00 0.00 0.00 91 1009.5
20260506104034 74 0.0 0.0 0.00 0.00 0.00 91 1009.5
20260506103532 74 0.0 0.0 0.00 0.00 0.00 91 1009.4
20260506103030 74 0.0 0.0 0.00 0.00 0.00 91 1009.3
20260506102528 74 0.0 0.0 0.00 0.00 0.00 91 1009.2
20260506102024 74 0.0 0.9 0.00 0.00 0.00 91 1009.2
20260506101522 74 0.0 0.9 0.00 0.00 0.00 91 1009.1
20260506101020 74 0.0 0.0 0.00 0.00 0.00 90 1009.2
20260506100518 74 0.0 3.5 0.00 0.00 0.00 90 1009.0
20260506100014 74 0.0 3.5 0.00 0.00 0.00 90 1009.0
20260506095512 75 0.0 0.0 0.00 0.00 0.00 90 1008.9
20260506095010 75 0.0 0.0 0.00 0.00 0.00 89 1008.9
20260506094508 75 0.0 3.5 0.00 0.00 0.00 89 1008.9
20260506094004 75 171 0.9 4.3 0.00 0.00 0.00 89 1008.8
20260506093502 75 0.0 0.0 0.00 0.00 0.00 89 1008.8
20260506092958 75 0.0 0.0 0.00 0.00 0.00 89 1008.6
20260506092456 75 0.0 0.0 0.00 0.00 0.00 88 1008.5
20260506091954 75 0.0 0.9 0.00 0.00 0.00 89 1008.6
20260506091452 75 0.0 0.0 0.00 0.00 0.00 88 1008.6
20260506090948 75 0.0 0.0 0.00 0.00 0.00 88 1008.5
20260506090446 75 0.0 2.6 0.00 0.00 0.00 88 1008.5
20260506085944 75 0.0 2.6 0.00 0.00 0.00 88 1008.5
20260506085442 75 0.0 1.7 0.00 0.00 0.00 88 1008.4
20260506084938 75 0.0 0.9 0.00 0.00 0.00 88 1008.3
20260506084436 75 0.0 0.0 0.00 0.00 0.00 88 1008.3
20260506083934 75 0.0 2.6 0.00 0.00 0.00 88 1008.4
20260506083432 75 0.0 3.5 0.00 0.00 0.00 88 1008.5
20260506082928 75 170 0.9 3.5 0.00 0.00 0.00 88 1008.4
20260506082429 75 0.0 2.6 0.00 0.00 0.00 88 1008.4
20260506081924 75 0.0 4.3 0.00 0.00 0.00 88 1008.3
20260506081422 75 0.0 4.3 0.00 0.00 0.00 88 1008.4
20260506080918 75 185 0.9 3.5 0.00 0.00 0.00 88 1008.4
20260506080416 75 0.0 3.5 0.00 0.00 0.00 87 1008.4
20260506073402 75 150 0.9 7.8 0.00 0.00 0.00 87 1008.4
20260506072858 75 203 0.9 7.8 0.00 0.00 0.00 87 1008.5
20260506072356 75 170 1.7 8.7 0.00 0.00 0.00 87 1008.5
20260506071854 75 202 1.7 8.7 0.00 0.00 0.00 87 1008.5
20260506071352 75 164 1.7 9.6 0.00 0.00 0.00 87 1008.6
20260506070848 75 171 1.7 10.4 0.00 0.00 0.00 87 1008.5
20260506070346 75 185 1.7 10.4 0.00 0.00 0.00 87 1008.4
20260506062326 75 167 0.9 7.8 0.00 0.00 0.00 87 1008.3
20260506061822 75 169 1.7 6.1 0.00 0.00 0.00 87 1008.4
20260506061320 75 0.0 7.0 0.00 0.00 0.00 87 1008.3
20260506060818 75 168 1.7 11.3 0.00 0.00 0.00 87 1008.4
20260506060316 75 168 3.5 11.3 0.00 0.00 0.00 87 1008.3
20260506051249 75 0.9 5.2 0.00 0.00 0.00 88 1008.5
20260506050747 75 206 0.9 5.2 0.00 0.00 0.00 88 1008.5
20260506050246 75 0.0 4.3 0.00 0.00 0.00 88 1008.5
20260506044737 75 184 1.7 6.1 0.00 0.00 0.00 88 1008.4
20260506044235 75 190 0.9 5.2 0.00 0.00 0.00 88 1008.5
20260506043731 75 174 0.9 7.0 0.00 0.00 0.00 88 1008.5
20260506043229 75 174 1.7 7.0 0.00 0.00 0.00 88 1008.6
20260506042727 75 0.0 4.3 0.00 0.00 0.00 88 1008.5
20260506042225 75 0.0 4.3 0.00 0.00 0.00 88 1008.4
20260506041721 76 177 0.9 3.5 0.00 0.00 0.00 88 1008.4
20260506041219 76 0.0 3.5 0.00 0.00 0.00 87 1008.4
20260506040717 76 0.0 4.3 0.00 0.00 0.00 87 1008.3
20260506040215 76 0.0 3.5 0.00 0.00 0.00 87 1008.3
20260506035711 76 0.0 0.9 0.00 0.00 0.00 86 1008.3
20260506035209 76 0.0 3.5 0.00 0.00 0.00 86 1008.2
20260506034707 76 182 0.9 6.1 0.00 0.00 0.00 86 1008.1
20260506034205 76 189 0.9 6.1 0.00 0.00 0.00 86 1008.0
20260506033701 76 189 0.9 4.3 0.00 0.00 0.00 86 1008.0
20260506033159 76 0.0 1.7 0.00 0.00 0.00 85 1007.9
20260506032655 76 0.0 0.0 0.00 0.00 0.00 85 1008.0
20260506032153 76 0.0 0.0 0.00 0.00 0.00 84 1007.9
20260506031651 76 0.0 2.6 0.00 0.00 0.00 84 1007.8
20260506031149 76 208 0.9 2.6 0.00 0.00 0.00 84 1007.8
20260506030645 76 0.0 2.6 0.00 0.00 0.00 84 1007.7
20260506030143 76 0.0 0.0 0.00 0.00 0.00 84 1007.5
20260506025641 77 0.0 0.0 0.00 0.00 0.00 83 1007.5
20260506025139 77 0.0 0.0 0.00 0.00 0.00 83 1007.5
20260506024635 77 0.0 0.0 0.00 0.00 0.00 83 1007.4
20260506024133 77 0.0 0.9 0.00 0.00 0.00 82 1007.3
20260506023631 77 0.0 0.9 0.00 0.00 0.00 82 1007.2
20260506023129 77 0.0 0.9 0.00 0.00 0.00 82 1007.1
20260506022625 77 0.0 0.9 0.00 0.00 0.00 82 1007.0
20260506022123 77 0.0 0.0 0.00 0.00 0.00 81 1006.9
20260506021621 78 0.0 0.0 0.00 0.00 0.00 81 1006.8
20260506021119 78 0.0 0.0 0.00 0.00 0.00 81 1006.8
20260506020615 78 0.0 0.9 0.00 0.00 0.00 81 1006.7
20260506020113 78 0.0 0.9 0.00 0.00 0.00 81 1006.7
20260506015611 78 0.0 0.9 0.00 0.00 0.00 80 1006.7
20260506015109 78 0.0 0.9 0.00 0.00 0.00 80 1006.7
20260506014605 78 0.0 0.0 0.00 0.00 0.00 80 1006.5
20260506014103 78 0.0 0.0 0.00 0.00 0.00 79 1006.4
20260506013601 79 0.0 0.9 0.00 0.00 0.00 79 1006.4
20260506013059 79 0.0 0.9 0.00 0.00 0.00 78 1006.4
20260506012555 79 0.0 0.0 0.00 0.00 0.00 77 1006.3
20260506012053 79 0.0 0.9 0.00 0.00 0.00 77 1006.3
20260506011551 79 0.0 0.9 0.00 0.00 0.00 76 1006.2
20260506011049 80 0.0 0.9 0.00 0.00 0.00 76 1006.3
20260506010545 80 0.0 0.9 0.00 0.00 0.00 76 1006.2
20260506010043 80 0.0 2.6 0.00 0.00 0.00 75 1006.2
20260506005541 80 0.0 3.5 0.00 0.00 0.00 75 1006.2
20260506005037 81 0.0 6.1 0.00 0.00 0.00 75 1006.2
20260506004535 81 0.0 5.2 0.00 0.00 0.00 74 1006.2
20260506004033 81 0.0 3.5 0.00 0.00 0.00 74 1006.3
20260506003529 81 0.0 3.5 0.00 0.00 0.00 74 1006.3
20260506003027 82 0.0 2.6 0.00 0.00 0.00 73 1006.4
20260506002525 82 0.0 2.6 0.00 0.00 0.00 73 1006.2
20260506002023 82 0.0 3.5 0.00 0.00 0.00 74 1006.3
20260506001519 82 0.0 3.5 0.00 0.00 0.00 73 1006.3
20260506001017 82 0.0 3.5 0.00 0.00 0.00 73 1006.2
20260506000515 82 161 0.9 4.3 0.00 0.00 0.00 73 1006.2
20260506000013 82 0.0 3.5 0.00 0.00 0.00 72 1006.4
20260505235509 82 0.0 3.5 0.00 0.00 0.00 72 1006.4
20260505235007 82 0.0 5.2 0.00 0.00 0.00 72 1006.2
20260505234505 82 181 0.9 5.2 0.00 0.00 0.00 71 1006.4
20260505234003 82 0.0 5.2 0.00 0.00 0.00 71 1006.2
20260505233459 82 0.0 4.3 0.00 0.00 0.00 71 1006.2
20260505232957 82 0.0 4.3 0.00 0.00 0.00 71 1006.1
20260505232455 82 0.9 4.3 0.00 0.00 0.00 70 1006.0
20260505231953 82 176 0.9 4.3 0.00 0.00 0.00 70 1006.0
20260505231449 83 194 0.9 4.3 0.00 0.00 0.00 72 1006.0
20260505230947 83 0.9 5.2 0.00 0.00 0.00 70 1005.9
20260505230445 83 188 0.9 5.2 0.00 0.00 0.00 70 1005.8
20260505225943 83 0.9 4.3 0.00 0.00 0.00 70 1005.8
20260505225439 83 183 0.9 4.3 0.00 0.00 0.00 70 1005.8
20260505224937 83 0.0 3.5 0.00 0.00 0.00 70 1005.7
20260505224435 83 158 0.9 4.3 0.00 0.00 0.00 70 1005.7
20260505223933 83 0.0 5.2 0.00 0.00 0.00 70 1005.7
20260505223429 83 190 1.7 6.1 0.00 0.00 0.00 71 1005.8
20260505222927 83 188 1.7 7.0 0.00 0.00 0.00 70 1005.9
20260505222425 83 191 0.9 7.0 0.00 0.00 0.00 70 1005.8
20260505221923 83 167 0.9 7.0 0.00 0.00 0.00 70 1005.7
20260505221419 83 0.9 7.0 0.00 0.00 0.00 70 1005.6
20260505220917 83 178 0.9 7.0 0.00 0.00 0.00 71 1005.7
20260505220413 83 148 0.9 7.0 0.00 0.00 0.00 70 1005.7
20260505215911 83 166 0.9 8.7 0.00 0.00 0.00 70 1005.7
20260505215409 84 191 3.5 9.6 0.00 0.00 0.00 68 1005.8
20260505214907 84 158 1.7 7.8 0.00 0.00 0.00 70 1005.9
20260505214403 84 156 1.7 9.6 0.00 0.00 0.00 69 1006.0
20260505213901 84 194 0.9 9.6 0.00 0.00 0.00 70 1005.9
20260505213359 84 149 0.9 5.2 0.00 0.00 0.00 69 1005.9
20260505212857 84 168 2.6 7.0 0.00 0.00 0.00 69 1006.1
20260505212352 84 191 0.9 7.0 0.00 0.00 0.00 69 1006.2
20260505211850 84 182 0.9 6.1 0.00 0.00 0.00 69 1006.2